Date String (YYYY-MM-DD hh:mm:ss) UTC,Instrument flags,Ambient pressure (hPa),Sample flow (lpm),Bypass flow (lpm),Sample temperature (°C),Ambient temperature (°C),ASC tube jacket temperature (°C),LED temperature (°C),Box temperature (°C),Sample RH (%),Span deviation,Mass concentration (μg/m³),Mass concentration (μg/m³),Mass concentration (μg/m³)
DateTimeUTC,F1_M11,P_M11,Q1_M11,Q2_M11,T1_M11,T2_M11,T3_M11,T4_M11,T5_M11,U1_M11,ZSPAN_M11,X0_M11,X2_M11,X1_M11
2023-04-25 02:00:00,,0822.9,5.00,0.00,28.1,26.5,00.0,36.5,29.6,12.2,0000.0,0009.59,0004.70,0003.93
2023-04-25 02:01:00,,0822.9,5.00,0.00,28.1,26.5,00.0,36.5,29.6,12.2,0000.0,0009.56,0004.68,0003.92
2023-04-25 02:02:00,,0822.9,5.00,0.00,28.1,26.5,00.0,36.5,29.6,12.2,0000.0,0009.97,0004.64,0003.91
2023-04-25 02:03:00,,0822.9,5.00,0.00,28.1,26.5,00.0,36.5,29.6,12.3,0000.0,0010.34,0004.68,0003.90
2023-04-25 02:04:00,,0822.8,5.01,0.00,28.1,26.5,00.0,36.5,29.7,12.2,0000.0,0010.30,0004.66,0003.89
2023-04-25 02:05:00,,0822.9,5.00,0.00,28.1,26.5,00.0,36.5,29.6,12.2,0000.0,0010.85,0004.65,0003.89
2023-04-25 02:06:00,,0822.9,5.00,0.00,28.1,26.5,00.0,36.5,29.7,12.2,0000.0,0011.41,0004.68,0003.89
2023-04-25 02:07:00,,0822.8,5.00,0.00,28.1,26.5,00.0,36.5,29.7,12.1,0000.0,0011.33,0004.68,0003.91
2023-04-25 02:08:00,,0822.9,5.00,0.00,28.1,26.5,00.0,36.5,29.6,12.0,0000.0,0011.13,0004.66,0003.91
2023-04-25 02:09:00,,0822.8,5.01,0.00,28.1,26.5,00.0,36.5,29.7,12.0,0000.0,0010.80,0004.65,0003.90
2023-04-25 02:10:00,,0822.8,5.00,0.00,28.1,26.5,00.0,36.5,29.7,12.0,0000.0,0011.09,0004.72,0003.91
2023-04-25 02:11:00,,0822.9,5.00,0.00,28.1,26.5,00.0,36.5,29.7,12.1,0000.0,0011.27,0004.72,0003.91
2023-04-25 02:12:00,,0822.9,5.00,0.00,28.1,26.5,00.0,36.5,29.7,12.3,0000.0,0011.46,0004.73,0003.91
2023-04-25 02:13:00,,0823.1,5.00,0.00,28.1,26.5,00.0,36.5,29.7,12.5,0000.0,0011.16,0004.75,0003.91
2023-04-25 02:14:00,,0823.0,5.00,0.00,28.1,26.5,00.0,36.5,29.7,12.4,0000.0,0010.97,0004.75,0003.92
2023-04-25 02:15:00,,0822.9,5.00,0.00,28.1,26.5,00.0,36.5,29.7,12.3,0000.0,0010.65,0004.69,0003.91
2023-04-25 02:16:00,,0822.9,5.00,0.00,28.1,26.5,00.0,36.5,29.7,12.3,0000.0,0009.76,0004.69,0003.91
2023-04-25 02:17:00,,0822.9,5.01,0.00,28.1,26.5,00.0,36.5,29.7,12.3,0000.0,0008.88,0004.65,0003.90
2023-04-25 02:18:00,,0822.9,5.00,0.00,28.1,26.5,00.0,36.5,29.7,12.4,0000.0,0009.12,0004.62,0003.88
2023-04-25 02:19:00,,0822.8,5.00,0.00,28.1,26.5,00.0,36.5,29.7,12.4,0000.0,0009.51,0004.58,0003.86
2023-04-25 02:20:00,,0822.9,5.01,0.00,28.1,26.5,00.0,36.5,29.7,12.3,0000.0,0009.55,0004.58,0003.86
2023-04-25 02:21:00,,0822.9,5.00,0.00,28.1,26.5,00.0,36.5,29.7,12.2,0000.0,0009.37,0004.53,0003.85
2023-04-25 02:22:00,,0822.9,5.00,0.00,28.1,26.5,00.0,36.5,29.7,12.2,0000.0,0009.50,0004.49,0003.83
2023-04-25 02:23:00,,0822.9,5.00,0.00,28.1,26.5,00.0,36.5,29.7,12.3,0000.0,0009.40,0004.52,0003.83
2023-04-25 02:24:00,,0823.1,5.01,0.00,28.1,26.5,00.0,36.5,29.7,12.3,0000.0,0009.46,0004.53,0003.83
2023-04-25 02:25:00,,0822.9,5.01,0.00,28.1,26.5,00.0,36.5,29.7,12.4,0000.0,0009.39,0004.52,0003.83
2023-04-25 02:26:00,,0822.9,5.00,0.00,28.1,26.5,00.0,36.5,29.7,12.1,0000.0,0009.50,0004.56,0003.84
2023-04-25 02:27:00,,0823.0,5.00,0.00,28.1,26.5,00.0,36.5,29.7,12.0,0000.0,0009.70,0004.61,0003.85
2023-04-25 02:28:00,,0822.9,5.00,0.00,28.1,26.5,00.0,36.5,29.7,12.3,0000.0,0010.30,0004.66,0003.86
2023-04-25 02:29:00,,0822.9,5.00,0.00,28.1,26.5,00.0,36.5,29.7,12.2,0000.0,0010.24,0004.70,0003.86
2023-04-25 02:30:00,,0823.0,5.02,0.00,28.1,26.5,00.0,36.5,29.7,12.2,0000.0,0009.99,0004.74,0003.88
2023-04-25 02:31:00,,0823.0,5.00,0.00,28.1,26.5,00.0,36.5,29.7,12.2,0000.0,0009.95,0004.73,0003.88
2023-04-25 02:32:00,,0823.0,4.98,0.00,28.1,26.5,00.0,36.5,29.7,12.2,0000.0,0010.29,0004.75,0003.88
2023-04-25 02:33:00,,0823.0,4.99,0.00,28.1,26.5,00.0,36.5,29.7,12.2,0000.0,0010.09,0004.78,0003.89
2023-04-25 02:34:00,,0823.0,5.00,0.00,28.1,26.5,00.0,36.5,29.7,12.2,0000.0,0009.91,0004.76,0003.88
2023-04-25 02:35:00,,0823.0,5.01,0.00,28.1,26.5,00.0,36.5,29.7,12.3,0000.0,0009.84,0004.74,0003.88
2023-04-25 02:36:00,,0823.0,5.01,0.00,28.1,26.5,00.0,36.5,29.7,12.3,0000.0,0010.11,0004.70,0003.88
2023-04-25 02:37:00,,0823.0,5.01,0.00,28.1,26.5,00.0,36.5,29.7,12.3,0000.0,0010.15,0004.68,0003.87
2023-04-25 02:38:00,,0823.0,5.01,0.00,28.1,26.5,00.0,36.5,29.7,12.3,0000.0,0010.15,0004.65,0003.86
2023-04-25 02:39:00,,0823.0,5.00,0.00,28.1,26.5,00.0,36.5,29.7,12.3,0000.0,0009.59,0004.61,0003.86
2023-04-25 02:40:00,,0823.0,5.00,0.00,28.1,26.5,00.0,36.5,29.7,12.3,0000.0,0009.29,0004.57,0003.87
2023-04-25 02:41:00,,0823.1,4.99,0.00,28.1,26.5,00.0,36.5,29.7,12.3,0000.0,0009.31,0004.54,0003.86
2023-04-25 02:42:00,,0823.1,5.00,0.00,28.1,26.5,00.0,36.5,29.7,12.3,0000.0,0009.21,0004.53,0003.85
2023-04-25 02:43:00,,0823.1,5.00,0.00,28.1,26.5,00.0,36.5,29.7,12.3,0000.0,0009.28,0004.52,0003.84
2023-04-25 02:44:00,,0823.1,4.99,0.00,28.1,26.5,00.0,36.5,29.7,12.3,0000.0,0009.34,0004.52,0003.83
2023-04-25 02:45:00,,0823.1,5.00,0.00,28.1,26.5,00.0,36.5,29.7,12.4,0000.0,0009.44,0004.53,0003.84
2023-04-25 02:46:00,,0823.1,5.00,0.00,28.1,26.5,00.0,36.5,29.7,12.5,0000.0,0009.68,0004.54,0003.83
2023-04-25 02:47:00,,0823.1,5.01,0.00,28.1,26.5,00.0,36.5,29.7,12.6,0000.0,0009.81,0004.57,0003.82
2023-04-25 02:48:00,,0823.1,4.99,0.00,28.1,26.5,00.0,36.5,29.7,12.6,0000.0,0009.69,0004.57,0003.83
2023-04-25 02:49:00,,0823.1,5.00,0.00,28.1,26.5,00.0,36.5,29.7,12.6,0000.0,0009.55,0004.55,0003.82
2023-04-25 02:50:00,,0823.1,5.00,0.00,28.1,26.5,00.0,36.5,29.7,12.7,0000.0,0009.45,0004.56,0003.82
2023-04-25 02:51:00,,0823.1,5.00,0.00,28.1,26.5,00.0,36.5,29.7,12.7,0000.0,0009.55,0004.60,0003.82
2023-04-25 02:52:00,,0823.1,5.00,0.00,28.1,26.5,00.0,36.5,29.7,12.7,0000.0,0009.48,0004.61,0003.82
2023-04-25 02:53:00,,0823.1,5.00,0.00,28.1,26.5,00.0,36.5,29.7,12.8,0000.0,0009.39,0004.64,0003.82
2023-04-25 02:54:00,,0823.1,5.00,0.00,28.1,26.5,00.0,36.5,29.7,12.8,0000.0,0009.08,0004.64,0003.83
2023-04-25 02:55:00,,0823.1,5.01,0.00,28.1,26.4,00.0,36.5,29.7,12.8,0000.0,0009.05,0004.66,0003.83
2023-04-25 02:56:00,,0823.1,5.00,0.00,28.1,26.4,00.0,36.5,29.7,12.8,0000.0,0009.47,0004.67,0003.82
2023-04-25 02:57:00,,0823.1,5.01,0.00,28.1,26.4,00.0,36.5,29.7,12.8,0000.0,0009.55,0004.68,0003.82
2023-04-25 02:58:00,,0823.2,5.00,0.00,28.1,26.4,00.0,36.5,29.7,12.8,0000.0,0008.98,0004.64,0003.84
2023-04-25 02:59:00,,0823.1,4.99,0.00,28.1,26.4,00.0,36.5,29.6,12.8,0000.0,0009.16,0004.66,0003.85
